KJ4W Weather Reports


time (UTC)temp
C
wind
direction
speed
KPH
gust
KPH
rain 1hr
cm
rain 24hr
cm
rain mn
cm
humidity
%
barometer
mb
20260504081345 16 231 8.0 16.1 0.00 0.00 0.00 60 1011.9
20260504045846 16 172 3.2 16.1 0.00 0.00 0.00 52 1013.6
20260504044346 16 182 14.5 16.1 0.00 0.00 0.00 53 1013.8
20260504042844 16 185 6.4 16.1 0.00 0.00 0.00 53 1014.0
20260504041346 16 175 6.4 16.1 0.00 0.00 0.00 53 1013.9
20260504035847 16 219 3.2 16.1 0.00 0.00 0.00 53 1014.0
20260504034345 16 190 4.8 16.1 0.00 0.00 0.00 54 1014.1
20260504032844 16 199 3.2 16.1 0.00 0.00 0.00 54 1014.4
20260504031346 16 181 3.2 16.1 0.00 0.00 0.00 53 1014.4
20260504025845 16 194 4.8 16.1 0.00 0.00 0.00 53 1014.2
20260504024345 16 181 9.7 16.1 0.00 0.00 0.00 54 1014.1
20260504022844 16 159 6.4 16.1 0.00 0.00 0.00 54 1014.2
20260504021346 16 175 4.8 16.1 0.00 0.00 0.00 54 1014.4
20260504015845 16 187 1.6 16.1 0.00 0.00 0.00 54 1014.3
20260504014345 16 205 1.6 16.1 0.00 0.00 0.00 54 1014.5
20260504012845 16 188 4.8 16.1 0.00 0.00 0.00 51 1014.4
20260504011344 17 170 0.0 16.1 0.00 0.00 0.00 50 1014.3
20260504005846 17 172 0.0 16.1 0.00 0.00 0.00 48 1014.4
20260504004345 18 186 3.2 16.1 0.00 0.00 0.00 47 1014.4
20260504002846 18 192 3.2 16.1 0.00 0.00 0.00 46 1014.5
20260504001344 18 207 4.8 16.1 0.00 0.00 0.00 44 1014.4
20260503235846 19 194 9.7 16.1 0.00 0.00 0.00 43 1014.5
20260503234345 19 209 14.5 16.1 0.00 0.00 0.00 42 1014.6
20260503232845 19 180 9.7 16.1 0.00 0.00 0.00 41 1014.7
20260503231344 20 204 3.2 16.1 0.00 0.00 0.00 41 1015.1
20260503225846 20 190 8.0 16.1 0.00 0.00 0.00 41 1015.3
20260503224345 20 169 14.5 16.1 0.00 0.00 0.00 41 1015.4
20260503222845 20 158 16.1 16.1 0.00 0.00 0.00 40 1015.7
20260503221344 20 183 11.3 16.1 0.00 0.00 0.00 38 1015.9
20260503215845 20 182 9.7 16.1 0.00 0.00 0.00 37 1016.0
20260503214345 20 186 8.0 16.1 0.00 0.00 0.00 40 1016.3
20260503212845 20 177 9.7 16.1 0.00 0.00 0.00 39 1016.3
20260503211344 20 173 16.1 16.1 0.00 0.00 0.00 38 1016.6
20260503205844 20 174 9.7 16.1 0.00 0.00 0.00 39 1016.9
20260503204345 20 182 3.2 16.1 0.00 0.00 0.00 41 1017.2
20260503202847 20 176 12.9 16.1 0.00 0.00 0.00 39 1017.5
20260503201344 20 179 6.4 16.1 0.00 0.00 0.00 39 1017.8
20260503195844 20 211 9.7 16.1 0.00 0.00 0.00 41 1018.3
20260503194343 20 265 6.4 16.1 0.00 0.00 0.00 39 1018.4
20260503192845 20 187 6.4 16.1 0.00 0.00 0.00 41 1018.8
20260503191346 20 215 0.0 16.1 0.00 0.00 0.00 39 1019.1
20260503182846 19 201 8.0 14.5 0.00 0.00 0.00 44 1020.0
20260503181345 18 178 3.2 14.5 0.00 0.00 0.00 45 1020.2
20260503175844 18 270 0.0 14.5 0.00 0.00 0.00 42 1020.5
20260503174343 18 180 6.4 14.5 0.00 0.00 0.00 43 1020.7
20260503172846 18 177 11.3 14.5 0.00 0.00 0.00 44 1020.8
20260503171344 17 236 1.6 14.5 0.00 0.00 0.00 47 1021.0